Weather reports worldwide

Advertisment
Redesdale Camp, United Kingdom (3230): temperature & dewpoint: 22.05.2017 19:00:00 - 28.05.2017 19:00:00 (BST)Redesdale Camp, United Kingdom (3230): temperature 5cm: 22.05.2017 19:00:00 - 28.05.2017 19:00:00 (BST)Redesdale Camp, United Kingdom (3230): temperature -20cm & temperature -100cm: 22.05.2017 19:00:00 - 28.05.2017 19:00:00 (BST)Redesdale Camp, United Kingdom (3230): wind speed & gusts: 22.05.2017 19:00:00 - 28.05.2017 19:00:00 (BST)Redesdale Camp, United Kingdom (3230): wind direction: 22.05.2017 19:00:00 - 28.05.2017 19:00:00 (BST)Redesdale Camp, United Kingdom (3230): reduced air pressure: 22.05.2017 19:00:00 - 28.05.2017 19:00:00 (BST)Redesdale Camp, United Kingdom (3230): visibility: 22.05.2017 19:00:00 - 28.05.2017 19:00:00 (BST)Redesdale Camp, United Kingdom (3230): precipitation: 22.05.2017 19:00:00 - 28.05.2017 19:00:00 (BST)
Date & Time tt [°C] td [°C] tt 5cm [°C] tt -20cm [°C] tt -100cm [°C] ff [km/h] ff [kn] fx [km/h] fx [kn] dd ppp [hPa] vv [km] rr [mm]
28.05.2017 19:00:00 14,4 11,8 - - - 28 15 - - ENE 1017,7 50 0,0
28.05.2017 18:00:00 16,2 12,6 - - - 26 14 - - ENE 1017,3 50 0,0
28.05.2017 17:00:00 19,0 12,3 - - - 5 3 - - NNE 1016,5 27 0,0
28.05.2017 16:00:00 18,9 12,6 - - - 5 3 - - NNW 1016,8 24 0,0
28.05.2017 15:00:00 18,5 12,2 - - - 4 2 - - NW 1016,7 25 0,0
28.05.2017 14:00:00 19,2 13,1 - - - 11 6 - - W 1016,3 24 0,0
28.05.2017 13:00:00 17,8 12,8 - - - 11 6 - - NW 1016,2 24 0,0
28.05.2017 12:00:00 17,9 12,4 - - - 13 7 - - W 1015,8 25 0,0
28.05.2017 11:00:00 15,2 11,5 - - - 9 5 - - W 1015,7 27 0,0
28.05.2017 10:00:00 14,4 11,8 - 14,9 11,4 13 7 - - WSW 1015,1 27 0,0
28.05.2017 09:00:00 13,4 11,7 - - - 15 8 - - SW 1014,6 28 0,0
28.05.2017 08:00:00 14,4 12,5 - - - 11 6 - - WSW 1013,5 23 0,0
28.05.2017 07:00:00 14,5 13,2 - - - 5 3 - - WSW 1012,7 27 0,0
28.05.2017 06:00:00 13,6 13,0 - - - 9 5 - - WSW 1011,9 18 0,0
28.05.2017 05:00:00 12,7 12,2 - - - 8 4 - - WSW 1012,2 8 0,0
28.05.2017 04:00:00 13,0 12,4 - - - 15 8 - - WSW 1011,4 3,8 0,0
28.05.2017 03:00:00 13,4 12,7 - - - 13 7 - - SW 1010,9 3,3 0,0
28.05.2017 02:00:00 14,3 13,4 - - - 5 3 - - S 1010,2 9 0,0
28.05.2017 01:00:00 14,3 13,2 - - - 9 5 - - WNW 1009,5 12 0,0
28.05.2017 00:00:00 14,8 13,4 - - - 9 5 - - WSW 1009,3 14 0,0
27.05.2017 23:00:00 15,3 14,0 - - - 4 2 - - W 1008,7 9 0,0
27.05.2017 22:00:00 15,5 13,7 - - - 4 2 - - WSW 1008,4 13 0,0
27.05.2017 21:00:00 16,7 14,7 - - - 4 2 - - WNW 1007,5 11 0,0
27.05.2017 20:00:00 17,5 14,6 - - - 4 2 - - SSW 1006,7 30 0,0
27.05.2017 19:00:00 17,9 14,7 - - - 5 3 - - S 1006,4 35 0,2
27.05.2017 18:00:00 17,4 14,4 - - - 5 3 55 30 WNW 1006,2 29 0,0
27.05.2017 17:00:00 20,8 15,7 - - - 11 6 - - SE 1006,8 30 0,0
27.05.2017 16:00:00 20,0 16,1 - - - 13 7 - - E 1007,2 30 0,0
27.05.2017 15:00:00 21,3 16,4 - - - 11 6 - - E 1008,2 26 0,0
27.05.2017 14:00:00 19,8 14,9 - - - 11 6 - - ESE 1009,1 28 0,0
27.05.2017 13:00:00 20,8 14,4 - - - 21 11 - - SE 1008,9 35 0,0
27.05.2017 12:00:00 23,0 15,4 - - - 11 6 - - SE 1008,6 40 0,0
27.05.2017 11:00:00 21,6 14,1 - - - 16 9 - - SE 1009,5 35 0,0
27.05.2017 10:00:00 20,4 14,0 - 14,7 11,0 8 4 - - SE 1010,5 29 0,0
27.05.2017 09:00:00 17,5 13,4 - - - 11 6 - - SSE 1011,8 20 0,0
27.05.2017 08:00:00 15,7 12,8 - - - 4 2 - - S 1012,6 16 0,0
27.05.2017 07:00:00 12,9 12,1 - - - 2 1 - - SW 1013,2 12 0,0
27.05.2017 06:00:00 8,6 8,1 - - - 4 2 - - WNW 1013,9 2,0 0,0
27.05.2017 05:00:00 9,7 9,2 - - - 5 3 - - W 1014,1 18 0,0
27.05.2017 04:00:00 9,2 8,4 - - - 4 2 - - N 1014,8 5 0,0
27.05.2017 03:00:00 10,3 9,1 - - - 2 1 - - ESE 1015,3 17 0,0
27.05.2017 02:00:00 11,5 10,0 - - - 0 0 - - N 1015,5 21 0,0
27.05.2017 01:00:00 12,3 11,2 - - - 4 2 - - ENE 1015,7 26 0,0
27.05.2017 00:00:00 13,2 11,5 - - - 5 3 - - ESE 1015,7 24 0,0
26.05.2017 23:00:00 14,6 12,2 - - - 5 3 - - ESE 1015,8 23 0,0
26.05.2017 22:00:00 16,0 13,2 - - - 8 4 - - SSE 1015,6 26 0,0
26.05.2017 21:00:00 17,6 13,5 - - - 13 7 - - ESE 1015,3 29 0,0
26.05.2017 20:00:00 19,7 13,6 - - - 18 10 - - E 1015,2 40 0,0
26.05.2017 19:00:00 21,9 14,3 - - - 22 12 - - ESE 1014,9 35 0,0
26.05.2017 18:00:00 24,0 13,4 - - - 22 12 - - SE 1015,1 40 0,0
26.05.2017 17:00:00 24,3 13,6 - - - 22 12 - - SE 1015,5 40 0,0
26.05.2017 16:00:00 24,2 12,9 - - - 26 14 - - SE 1016,2 40 0,0
26.05.2017 15:00:00 24,4 14,1 - - - 26 14 - - SE 1016,7 35 0,0
26.05.2017 14:00:00 24,1 13,5 - - - 22 12 - - SE 1017,2 40 0,0
26.05.2017 13:00:00 24,0 13,3 - - - 24 13 - - SE 1017,5 40 0,0
26.05.2017 12:00:00 23,4 13,5 - - - 22 12 - - SE 1018,1 40 0,0
26.05.2017 11:00:00 22,5 13,0 - - - 21 11 - - SE 1018,6 45 0,0
26.05.2017 10:00:00 21,7 14,0 21,8 14,0 10,7 15 8 - - SE 1019,1 40 0,0
26.05.2017 09:00:00 20,1 15,7 - - - 13 7 - - SE 1019,5 21 0,0
26.05.2017 08:00:00 16,6 15,4 - - - 0 0 - - N 1020,0 7 0,0
26.05.2017 07:00:00 12,0 11,7 - - - 4 2 - - WSW 1020,5 4,1 0,0
26.05.2017 06:00:00 9,6 9,3 - - - 4 2 - - N 1020,9 0,9 0,0
26.05.2017 05:00:00 9,8 9,4 - - - 2 1 - - NNW 1021,2 18 0,0
26.05.2017 04:00:00 10,4 9,9 - - - 5 3 - - W 1021,3 6 0,0
26.05.2017 03:00:00 10,3 9,7 - - - 2 1 - - WNW 1021,5 5 0,0
26.05.2017 02:00:00 10,7 10,0 - - - 2 1 - - WNW 1021,6 1,4 0,0
26.05.2017 01:00:00 10,8 9,7 - - - 0 0 - - N 1021,9 4,2 0,0
26.05.2017 00:00:00 12,5 11,1 - - - 2 1 - - WNW 1022,0 15 0,0
25.05.2017 23:00:00 14,4 12,5 - - - 5 3 - - N 1021,9 21 0,0
25.05.2017 22:00:00 15,5 13,1 - - - 4 2 - - NW 1021,9 23 0,0
25.05.2017 21:00:00 17,2 14,0 - - - 5 3 - - N 1021,5 - 0,0
25.05.2017 20:00:00 20,5 15,2 - - - 8 4 - - ESE 1021,2 - 0,0
25.05.2017 19:00:00 21,8 15,8 - - - 15 8 - - ESE 1021,0 - 0,0
25.05.2017 18:00:00 23,8 16,0 - - - 13 7 - - SE 1021,0 - 0,0
25.05.2017 17:00:00 24,6 16,1 - - - 15 8 - - SE 1021,3 - 0,0
25.05.2017 16:00:00 24,9 16,7 - - - 18 10 - - ESE 1021,6 - 0,0
25.05.2017 15:00:00 24,8 16,4 - - - 15 8 - - ESE 1022,0 - 0,0
25.05.2017 14:00:00 24,5 16,3 - - - 15 8 - - ESE 1022,4 - 0,0
25.05.2017 13:00:00 23,6 14,6 - - - 11 6 - - ESE 1022,9 - 0,0
25.05.2017 12:00:00 22,6 15,2 - - - 9 5 - - SE 1023,4 - 0,0
25.05.2017 11:00:00 20,5 14,6 - - - 9 5 - - SE 1024,1 - 0,0
25.05.2017 10:00:00 19,1 14,5 - 13,2 10,5 9 5 - - SE 1024,5 0,3 0,0
25.05.2017 09:00:00 16,5 14,7 - - - 2 1 - - SE 1024,9 - 0,0
25.05.2017 08:00:00 12,2 11,9 - - - 5 3 - - SSE 1025,4 - 0,0
25.05.2017 07:00:00 9,1 9,0 - - - 0 0 - - N 1025,5 - 0,0
25.05.2017 06:00:00 7,4 7,1 - - - 0 0 - - N 1025,7 - 0,0
25.05.2017 05:00:00 7,9 7,6 - - - 2 1 - - NNW 1025,5 - 0,0
25.05.2017 04:00:00 8,6 8,3 - - - 2 1 - - S 1025,6 - 0,0
25.05.2017 03:00:00 8,7 8,3 - - - 2 1 - - ESE 1025,8 - 0,0
25.05.2017 02:00:00 9,0 8,6 - - - 4 2 - - N 1026,0 - 0,0
25.05.2017 01:00:00 10,4 10,1 - - - 9 5 - - N 1026,0 - 0,0
25.05.2017 00:00:00 10,5 9,6 - - - 2 1 - - E 1025,8 - 0,0
24.05.2017 23:00:00 12,8 11,4 - - - 2 1 - - N 1025,5 - 0,0
24.05.2017 22:00:00 14,8 12,6 - - - 4 2 - - W 1025,1 0,3 0,0
24.05.2017 21:00:00 16,8 13,4 - - - 4 2 - - WSW 1024,5 - 0,0
24.05.2017 20:00:00 18,5 13,7 - - - 8 4 - - WSW 1024,3 - 0,0
24.05.2017 19:00:00 19,7 14,0 - - - 11 6 - - WSW 1023,9 - 0,0
24.05.2017 18:00:00 20,5 13,7 - - - 15 8 - - WSW 1023,7 - 0,0
24.05.2017 17:00:00 21,4 13,6 - - - 15 8 - - WSW 1023,9 - 0,0
24.05.2017 16:00:00 20,9 13,9 - - - 11 6 - - WSW 1024,1 - 0,0
24.05.2017 15:00:00 20,8 13,4 - - - 13 7 - - WSW 1024,1 - 0,0
24.05.2017 14:00:00 20,8 13,4 - - - 15 8 - - WSW 1023,9 - 0,0
24.05.2017 13:00:00 20,9 13,8 - - - 16 9 - - WSW 1023,6 - 0,0
24.05.2017 12:00:00 19,0 13,0 - - - 21 11 - - SW 1023,6 0,8 0,0
24.05.2017 11:00:00 19,3 13,4 - - - 9 5 - - WSW 1023,4 7 0,0
24.05.2017 10:00:00 19,5 13,0 19,7 12,4 10,4 9 5 - - WNW 1023,0 35 0,0
24.05.2017 09:00:00 18,3 12,6 - - - 13 7 - - W 1022,6 50 0,0
24.05.2017 08:00:00 16,5 12,6 - - - 13 7 - - W 1022,9 50 0,0
24.05.2017 07:00:00 14,5 11,9 - - - 15 8 - - WSW 1022,9 12 0,0
24.05.2017 06:00:00 14,1 12,2 - - - 11 6 - - SW 1022,4 7 0,0
24.05.2017 05:00:00 13,6 12,2 - - - 5 3 - - WSW 1022,1 22 0,0
24.05.2017 04:00:00 13,2 11,9 - - - 9 5 - - WSW 1021,9 35 0,0
24.05.2017 03:00:00 13,2 11,7 - - - 8 4 - - WSW 1021,8 26 0,0
24.05.2017 02:00:00 13,2 11,7 - - - 9 5 - - W 1021,4 10 0,0
24.05.2017 01:00:00 13,0 11,2 - - - 5 3 - - WNW 1021,2 5 0,0
24.05.2017 00:00:00 12,9 11,0 - - - 5 3 - - W 1021,5 0,5 0,0
23.05.2017 23:00:00 12,7 10,0 - - - 8 4 - - W 1021,2 50 0,0
23.05.2017 22:00:00 12,3 8,5 - - - 4 2 - - N 1020,9 2,8 0,0
23.05.2017 21:00:00 13,5 8,5 - - - 4 2 - - S 1020,8 50 0,0
23.05.2017 20:00:00 13,8 8,3 - - - 15 8 - - WSW 1020,5 50 0,0
23.05.2017 19:00:00 15,2 8,8 - - - 13 7 - - WSW 1020,1 50 0,0
23.05.2017 18:00:00 15,5 7,9 - - - 15 8 - - WSW 1019,8 50 0,0
23.05.2017 17:00:00 17,0 8,8 - - - 15 8 - - WSW 1019,2 50 0,0
23.05.2017 16:00:00 15,8 8,2 - - - 24 13 - - SW 1018,6 50 0,0
23.05.2017 15:00:00 16,1 7,7 - - - 22 12 - - SW 1018,4 50 0,0
23.05.2017 14:00:00 15,8 8,6 - - - 18 10 - - SW 1018,6 45 0,0
23.05.2017 13:00:00 16,1 7,5 - - - 16 9 - - WSW 1018,2 45 0,0
23.05.2017 12:00:00 15,0 6,3 - - - 15 8 - - WSW 1018,3 45 0,0
23.05.2017 11:00:00 13,9 6,6 - - - 13 7 - - W 1017,9 50 0,0
23.05.2017 10:00:00 13,5 7,6 - 11,7 10,2 13 7 - - WSW 1017,6 13 0,0
23.05.2017 09:00:00 11,4 7,0 - - - 13 7 - - WSW 1017,2 6 0,0
23.05.2017 08:00:00 10,2 7,2 - - - 5 3 - - WSW 1016,9 2,8 0,0
23.05.2017 07:00:00 9,1 7,2 - - - 0 0 - - N 1016,5 45 0,0
23.05.2017 06:00:00 6,4 5,4 - - - 0 0 - - N 1016,2 40 0,0
23.05.2017 05:00:00 5,9 4,9 - - - 4 2 - - N 1015,6 45 0,0
23.05.2017 04:00:00 6,2 4,9 - - - 4 2 - - N 1015,3 45 0,0
23.05.2017 03:00:00 8,2 6,4 - - - 2 1 - - NNW 1014,4 50 0,0
23.05.2017 02:00:00 8,9 6,7 - - - 4 2 - - WNW 1014,1 50 0,0
23.05.2017 01:00:00 8,9 7,3 - - - 4 2 - - WNW 1013,3 50 0,0
23.05.2017 00:00:00 10,1 8,4 - - - 4 2 - - W 1013,1 50 0,0
22.05.2017 23:00:00 11,7 10,5 - - - 16 9 - - SW 1012,2 23 0,6
22.05.2017 22:00:00 12,4 10,6 - - - 13 7 - - SW 1011,7 30 0,0
22.05.2017 21:00:00 12,5 10,2 - - - 18 10 - - SW 1011,0 29 0,0
22.05.2017 20:00:00 14,5 11,9 - - - 18 10 - - SW 1010,7 35 0,0
22.05.2017 19:00:00 14,4 12,5 - - - 13 7 - - SW 1010,6 26 0,0

tt = temperature
td = dewpoint
tt 5cm = temperature 5cm
tt -20cm = temperature -20cm
tt -100cm = temperature -100cm
ff = wind speed
fx = gusts
dd = wind direction
ppp = reduced air pressure
vv = visibility
rr = precipitation

Next stations